Location: Chillicothe
(39.7950°N, 93.5520°W)
Time: 00:07:08
(UTC-06:00)

BEESAT - Pass Details

Date: 23 November 2019
Orbit: 701 x 709 km, 98.6° (Epoch: 14 December)

Event Time Altitude Azimuth Distance (km) Brightness Sun altitude
Rises 05:34:05 0° 190° (S) 3,073 ? -17.8°
Reaches altitude 10° 05:36:33 10° 200° (SSW) 2,159 ? -17.3°
Maximum altitude 05:40:45 32° 263° (W) 1,207 ? -16.5°
Enters shadow 05:41:59 28° 291° (WNW) 1,317 ? -16.3°
